Live-Position
3D-Globus wird geladen...
Über Starlink 5646
Group: 3 satellites
Beschreibung wird geladen...
Nächste Überflüge
Passes for default location (London). Set your location on the main map for personalized predictions.
Höhenverlauf
Loading altitude history...
No altitude history available
Zweizeiliger Elementsatz
1 55461U 23015N 26124.60602977 .00001004 00000-0 46019-4 0 9993
2 55461 43.0047 12.9453 0001412 265.6843 94.3848 15.27576281179273
Epoch: 4. Mai 2026 •
Age: 6 hours
Aktueller Status
Höhe 484.3 km
Geschwindigkeit 7.62 km/s
Subsatellitenpunkt -9.51°S,
37.74°E
Startdatum 2. Feb. 2023
Alter 3.2 years
Typ internet
Startgruppe
Falcon 9 •
Group 5-3 •
49 satellites
Starlink 5699
55449
Starlink 5686 55450
Starlink 5656 55451
Starlink 5683 55452
Starlink 5684 55453
Starlink 5636 55454
Starlink 5680 55455
Starlink 5058 55456
Starlink 5682 55457
Starlink 5020 55458
Starlink 5669 55459
Starlink 5678 55460
Starlink 5673 55462
Starlink 5677 55463
Starlink 5676 55464
Starlink 5674 55465
Starlink 5628 55466
Starlink 5679 55467
Starlink 5672 55468
Starlink 5681 55469
...and 28 more
Technische Details
Klassifizierung Payload
Masse 305.00 kg
Trockenmasse 290.00 kg
Gesamtmasse 305.00 kg
Länge 0.20 m
Durchmesser 2.80 m
Spannweite 9.00 m
Form Box + pan
Hersteller SPXS
Bus-Typ Starlink
Phasenstatus In Orbit
Besitzer/Staat SPXS/US
Most Searched
Loading...